Location: Bittelbronn
(48.4454°N, 8.5870°E)
Time: 18:14:34
(UTC+00:00)

Cosmos 2360 Rocket - Pass Details

Date: 23 May 2024
Orbit: 832 x 846 km, 71.0° (Epoch: 16 June)

Event Time Altitude Azimuth Distance (km) Brightness Sun altitude
Rises 01:57:39 0° 330° (NNW) 3,416 5.7 -12.7°
Reaches altitude 10° 02:00:07 10° 329° (NNW) 2,478 4.9 -12.5°
Maximum altitude 02:05:46 71° 246° (WSW) 894 2.2 -11.9°
Drops below altitude 10° 02:11:24 10° 163° (SSE) 2,461 4.3 -11.3°
Sets 02:13:50 0° 162° (SSE) 3,391 5.0 -11.0°
